Regional Weather Roundup
Issued by NWS Goodland, KS

Home | Current Version | Previous Version | Graphics & Text | Print | Product List | Glossary On
Versions: 1 2 3 4 5 6 7 8 9 10 11 12 13 14 15 16 17 18 19 20 21 22 23 24 25 26 27 28 29 30 31 32 33 34 35 36 37 38 39 40 41 42 43 44 45 46 47 48 49 50
000
ASUS43 KGLD 172208
RWRGLD

GOODLAND FORECAST AREA HOURLY WEATHER ROUNDUP
NATIONAL WEATHER SERVICE GOODLAND KS
400 PM MDT FRI APR 17 2015

...OFFICIAL OBSERVATIONS...

CITY           SKY/WX    TMP DP  RH WIND       PRES   REMARKS
GOODLAND KS    MOSUNNY   66  47  50 E14G21    29.92F
HILL CITY KS   MOSUNNY   68  51  54 SE9       29.93F
IMPERIAL NEB     N/A     62  51  67 SE17      29.96F
MCCOOK NEB     PTSUNNY   68  52  56 SE16G22   29.95F
AKRON CO       PTSUNNY   53  48  83 E17       29.94F
BURLINGTON CO  SUNNY     62  46  55 SE17      29.92F
LIMON CO       SUNNY     58  31  35 S17G24    29.93F
$$

...UNOFFICIAL OBSERVATIONS...

CITY           SKY/WX    TMP DP  RH WIND       PRES   REMARKS
COLBY KS       PTSUNNY   66  55  68 E14       29.95F
GOVE KS          N/A     70  32  24 MISG        N/A
LENORA KS        N/A     68  32  26 MISG        N/A
NORTON KS      CLOUDY    68  48  49 E12       29.94F
SHARON SPRINGS   N/A     64  52  66 MISG        N/A
TRIBUNE KS     PTSUNNY   68  55  64 E14G20    29.91F
KIT CARSON CO    N/A     61  43  50 MISG        N/A
YUMA CO          N/A     55  55  99 NE8         N/A
$$


USA.gov is the U.S. government's official web portal to all federal, state and local government web resources and services.